Погода в Токусиме

Япония     34°03′47″N   134°31′11″E
темп.,
°C
ветер,
м/с
пор.,
м/с
влажн.,
%
обл.,
%
осадки,
мм/ч
давл.,
гПа
погр.,
м
20 января, чт
чт2000:00+1зсз35843 0.0 1018177
03:00+1зюз356611 0.0 1017210
06:000зюз356793 0.0 1016178
09:00+4сз8136779 1.0 10181641
12:00+5ссз8125838 0.4 10191999
15:00+5ссз8134641 0.4 10192084
18:00+3ссз7125580 0.0 10211386
21:00+1сз6116821 0.1 10231029
21 января, пт
пт2100:00+1сз6117133 0.1 1024955
03:000сз5107356 0.3 1025947
06:000сз5107277 0.2 10261073
09:00+2сз7126247 0.3 10271754
12:00+4ссз7114992 0.1 10271808
15:00+5сз7125189 0.1 10261930
18:00+3ссз6115978 0.1 10271271
21:00+1сз5106723 0.1 1028819
22 января, сб
сб2200:00−1зсз467581 0.0 1029311
03:00−2зсз347631 0.0 1029119
06:00−2зсз23764 0.0 102984
09:00+2сз23604 0.0 1029328
12:00+7с22493 0.0 1028965
15:00+7ссв32523 0.0 1026812
18:00+2ссв01755 0.0 102783
21:00+1зюз1180100 0.0 102646
23 января, вс
вс2300:00+2зюз1179100 0.0 102540
03:00+3зсз1176100 0.0 102442
06:00+3ссз2280100 0.3 102498
09:00+3сз1295100 2.5 1023116
12:00+4с1297100 3.9 1021153
15:00+4ссз2397100 8.2 1020227
18:00+5ссз2498100 3.9 1020218
21:00+5сз369699 4.8 1021392
24 января, пн
пн2400:00+4сз369578 0.1 1021366
03:00+4сз489193 0.1 1021435
06:00+4ссз488792 0.1 1020674
09:00+5с577874 0.1 1022850
12:00+7с4660100 0.0 1021918
15:00+7с3459100 0.0 1019915
18:00+4ссз2373100 0.0 1019177
21:00+5зсз1175100 0.0 102084